| time (UTC) | temp F | wind direction | speed MPH | gust MPH | rain 1hr in | rain 24hr in | rain mn in | humidity % | barometer mb |
| 20260903034049 | 78 | 91 | 1.0 | 2.0 | 0.00 | 0.00 | 0.00 | 84 | 1053.3 |
| 20260903033544 | 78 | 85 | 1.0 | 2.0 | 0.00 | 0.00 | 0.00 | 83 | 1053.3 |
| 20260903033040 | 78 | 86 | 1.0 | 2.0 | 0.00 | 0.00 | 0.00 | 83 | 1053.3 |
| 20260903032535 | 78 | 94 | 1.0 | 2.0 | 0.00 | 0.00 | 0.00 | 85 | 1053.4 |
| 20260903032030 | 77 | 96 | 1.0 | 1.0 | 0.00 | 0.00 | 0.00 | 86 | 1053.2 |
| 20260903031530 | 77 | 94 | 1.0 | 2.0 | 0.00 | 0.00 | 0.00 | 87 | 1053.3 |
| 20260903031025 | 77 | 87 | 2.0 | 2.0 | 0.00 | 0.00 | 0.00 | 87 | 1053.3 |
| 20260903030521 | 77 | 82 | 1.0 | 1.0 | 0.00 | 0.00 | 0.00 | 85 | 1053.4 |
| 20260903030017 | 79 | 114 | 0.0 | 0.0 | 0.00 | 0.00 | 0.00 | 81 | 1053.4 |
| 20260903025512 | 79 | 114 | 0.0 | 0.0 | 0.00 | 0.00 | 0.00 | 81 | 1053.5 |
| 20260903025008 | 79 | 112 | 0.0 | 1.0 | 0.00 | 0.00 | 0.00 | 81 | 1053.4 |
| 20260903024507 | 78 | 107 | 1.0 | 1.0 | 0.00 | 0.00 | 0.00 | 83 | 1053.2 |
| 20260903024001 | 78 | 95 | 1.0 | 1.0 | 0.00 | 0.00 | 0.00 | 84 | 1053.6 |
| 20260903023457 | 78 | 87 | 1.0 | 2.0 | 0.00 | 0.00 | 0.00 | 85 | 1053.4 |
| 20260903022952 | 78 | 80 | 2.0 | 2.0 | 0.00 | 0.00 | 0.00 | 83 | 1053.5 |
| 20260903022451 | 79 | 79 | 1.0 | 1.0 | 0.00 | 0.00 | 0.00 | 82 | 1053.7 |
| 20260903021949 | 80 | 89 | 1.0 | 1.0 | 0.00 | 0.00 | 0.00 | 78 | 1053.5 |
| 20260903021445 | 80 | 91 | 0.0 | 1.0 | 0.00 | 0.00 | 0.00 | 77 | 1053.5 |
| 20260903020940 | 80 | 89 | 1.0 | 1.0 | 0.00 | 0.00 | 0.00 | 79 | 1053.4 |
| 20260903020436 | 80 | 89 | 1.0 | 1.0 | 0.00 | 0.00 | 0.00 | 79 | 1053.2 |
| 20260903015930 | 80 | 88 | 1.0 | 1.0 | 0.00 | 0.00 | 0.00 | 80 | 1053.3 |
| 20260903015426 | 81 | 95 | 1.0 | 1.0 | 0.00 | 0.00 | 0.00 | 77 | 1053.4 |
| 20260903014921 | 82 | 96 | 1.0 | 1.0 | 0.00 | 0.00 | 0.00 | 75 | 1053.3 |
| 20260903014420 | 82 | 97 | 1.0 | 1.0 | 0.00 | 0.00 | 0.00 | 74 | 1053.5 |
| 20260903013916 | 82 | 97 | 0.0 | 1.0 | 0.00 | 0.00 | 0.00 | 73 | 1053.6 |
| 20260903013415 | 82 | 97 | 0.0 | 1.0 | 0.00 | 0.00 | 0.00 | 74 | 1053.3 |
| 20260903012915 | 81 | 97 | 1.0 | 1.0 | 0.00 | 0.00 | 0.00 | 75 | 1053.6 |
| 20260903012414 | 82 | 94 | 1.0 | 2.0 | 0.00 | 0.00 | 0.00 | 77 | 1053.3 |
| 20260903011913 | 82 | 80 | 1.0 | 2.0 | 0.00 | 0.00 | 0.00 | 76 | 1053.3 |
| 20260903011408 | 82 | 77 | 1.0 | 1.0 | 0.00 | 0.00 | 0.00 | 76 | 1053.3 |
| 20260903010903 | 82 | 76 | 1.0 | 1.0 | 0.00 | 0.00 | 0.00 | 75 | 1053.4 |
| 20260903010358 | 82 | 76 | 0.0 | 1.0 | 0.00 | 0.00 | 0.00 | 74 | 1053.1 |
| 20260903005856 | 83 | 76 | 0.0 | 1.0 | 0.00 | 0.00 | 0.00 | 71 | 1053.1 |
| 20260903005352 | 83 | 77 | 0.0 | 0.0 | 0.00 | 0.00 | 0.00 | 70 | 1053.2 |
| 20260903004848 | 83 | 77 | 0.0 | 0.0 | 0.00 | 0.00 | 0.00 | 68 | 1053.0 |
| 20260903004343 | 83 | 77 | 0.0 | 0.0 | 0.00 | 0.00 | 0.00 | 67 | 1053.2 |
| 20260903003838 | 84 | 77 | 0.0 | 0.0 | 0.00 | 0.00 | 0.00 | 67 | 1053.2 |
| 20260903003339 | 84 | 77 | 0.0 | 0.0 | 0.00 | 0.00 | 0.00 | 66 | 1053.0 |
| 20260903002838 | 85 | 77 | 0.0 | 0.0 | 0.00 | 0.00 | 0.00 | 64 | 1053.0 |
| 20260903002333 | 85 | 76 | 0.0 | 0.0 | 0.00 | 0.00 | 0.00 | 65 | 1052.9 |
| 20260903001827 | 85 | 211 | 0.0 | 0.0 | 0.00 | 0.00 | 0.00 | 66 | 1052.8 |
| 20260903001323 | 86 | 211 | 0.0 | 0.0 | 0.00 | 0.00 | 0.00 | 63 | 1053.0 |
| 20260903000823 | 87 | 211 | 0.0 | 0.0 | 0.00 | 0.00 | 0.00 | 61 | 1053.0 |
| 20260903000318 | 88 | 211 | 0.0 | 0.0 | 0.00 | 0.00 | 0.00 | 61 | 1053.0 |
| 20260902235816 | 89 | 211 | 0.0 | 0.0 | 0.00 | 0.00 | 0.00 | 59 | 1053.1 |
| 20260902235312 | 91 | 211 | 0.0 | 0.0 | 0.00 | 0.00 | 0.00 | 55 | 1053.0 |
| 20260902234812 | 92 | 211 | 0.0 | 0.0 | 0.00 | 0.00 | 0.00 | 53 | 1052.9 |
| 20260902234311 | 93 | 211 | 0.0 | 0.0 | 0.00 | 0.00 | 0.00 | 57 | 1053.0 |
| 20260902233810 | 95 | 211 | 0.0 | 0.0 | 0.00 | 0.00 | 0.00 | 57 | 1053.0 |
| 20260902233310 | 96 | 211 | 0.0 | 0.0 | 0.00 | 0.00 | 0.00 | 52 | 1053.0 |
| 20260902232809 | 96 | 211 | 0.0 | 0.0 | 0.00 | 0.00 | 0.00 | 50 | 1052.9 |
| 20260902232309 | 98 | 211 | 0.0 | 0.0 | 0.00 | 0.00 | 0.00 | 46 | 1053.3 |
| 20260902231808 | 98 | 208 | 0.0 | 0.0 | 0.00 | 0.00 | 0.00 | 45 | 1053.0 |
| 20260902231303 | 97 | 207 | 0.0 | 0.0 | 0.00 | 0.00 | 0.00 | 47 | 1053.0 |
| 20260902230759 | 97 | 207 | 0.0 | 0.0 | 0.00 | 0.00 | 0.00 | 45 | 1052.9 |
| 20260902230258 | 96 | 208 | 0.0 | 0.0 | 0.00 | 0.00 | 0.00 | 46 | 1053.1 |
| 20260902225752 | 96 | 208 | 0.0 | 0.0 | 0.00 | 0.00 | 0.00 | 47 | 1053.1 |
| 20260902225248 | 96 | 213 | 0.0 | 1.0 | 0.00 | 0.00 | 0.00 | 48 | 1053.0 |
| 20260902224746 | 96 | 228 | 1.0 | 1.0 | 0.00 | 0.00 | 0.00 | 47 | 1053.1 |
| 20260902224242 | 96 | 215 | 1.0 | 2.0 | 0.00 | 0.00 | 0.00 | 48 | 1053.0 |
| 20260902223738 | 97 | 210 | 1.0 | 2.0 | 0.00 | 0.00 | 0.00 | 44 | 1053.1 |
| 20260902223237 | 96 | 279 | 0.0 | 1.0 | 0.00 | 0.00 | 0.00 | 47 | 1053.1 |
| 20260902222736 | 96 | 250 | 1.0 | 2.0 | 0.00 | 0.00 | 0.00 | 44 | 1053.1 |
| 20260902222231 | 96 | 194 | 1.0 | 1.0 | 0.00 | 0.00 | 0.00 | 46 | 1053.4 |
| 20260902221731 | 96 | 187 | 2.0 | 3.0 | 0.00 | 0.00 | 0.00 | 45 | 1053.1 |
| 20260902221230 | 96 | 263 | 2.0 | 3.0 | 0.00 | 0.00 | 0.00 | 46 | 1053.4 |
| 20260902220726 | 96 | 231 | 2.0 | 3.0 | 0.00 | 0.00 | 0.00 | 45 | 1053.3 |
| 20260902220225 | 97 | 255 | 1.0 | 4.0 | 0.00 | 0.00 | 0.00 | 43 | 1053.4 |
| 20260902215721 | 96 | 231 | 1.0 | 2.0 | 0.00 | 0.00 | 0.00 | 45 | 1053.4 |
| 20260902215216 | 96 | 211 | 2.0 | 2.0 | 0.00 | 0.00 | 0.00 | 43 | 1053.4 |
| 20260902214712 | 96 | 206 | 2.0 | 4.0 | 0.00 | 0.00 | 0.00 | 43 | 1053.4 |
| 20260902214210 | 96 | 209 | 1.0 | 3.0 | 0.00 | 0.00 | 0.00 | 46 | 1053.5 |
| 20260902213706 | 96 | 236 | 2.0 | 6.0 | 0.00 | 0.00 | 0.00 | 44 | 1053.3 |
| 20260902213201 | 96 | 209 | 3.0 | 4.0 | 0.00 | 0.00 | 0.00 | 43 | 1053.6 |
| 20260902212655 | 97 | 194 | 2.0 | 4.0 | 0.00 | 0.00 | 0.00 | 42 | 1053.8 |
| 20260902212152 | 97 | 203 | 2.0 | 3.0 | 0.00 | 0.00 | 0.00 | 42 | 1053.6 |
| 20260902211648 | 97 | 212 | 2.0 | 2.0 | 0.00 | 0.00 | 0.00 | 44 | 1053.8 |
| 20260902211148 | 96 | 174 | 2.0 | 2.0 | 0.00 | 0.00 | 0.00 | 43 | 1053.7 |
| 20260902210647 | 97 | 215 | 5.0 | 7.0 | 0.00 | 0.00 | 0.00 | 41 | 1053.6 |
| 20260902210143 | 97 | 217 | 2.0 | 4.0 | 0.00 | 0.00 | 0.00 | 43 | 1053.6 |
| 20260902205642 | 96 | 116 | 0.0 | 1.0 | 0.00 | 0.00 | 0.00 | 46 | 1053.7 |
| 20260902205137 | 96 | 269 | 3.0 | 6.0 | 0.00 | 0.00 | 0.00 | 44 | 1053.7 |
| 20260902204632 | 96 | 226 | 4.0 | 4.0 | 0.00 | 0.00 | 0.00 | 41 | 1053.6 |
| 20260902204126 | 96 | 261 | 6.0 | 8.0 | 0.00 | 0.00 | 0.00 | 41 | 1053.8 |
| 20260902203622 | 96 | 206 | 2.0 | 7.0 | 0.00 | 0.00 | 0.00 | 43 | 1053.8 |
| 20260902203122 | 97 | 184 | 3.0 | 4.0 | 0.00 | 0.00 | 0.00 | 42 | 1053.8 |
| 20260902202618 | 97 | 236 | 2.0 | 4.0 | 0.00 | 0.00 | 0.00 | 43 | 1053.8 |
| 20260902202114 | 96 | 207 | 2.0 | 6.0 | 0.00 | 0.00 | 0.00 | 44 | 1053.7 |
| 20260902201610 | 97 | 235 | 3.0 | 4.0 | 0.00 | 0.00 | 0.00 | 44 | 1053.8 |
| 20260902201108 | 96 | 192 | 1.0 | 2.0 | 0.00 | 0.00 | 0.00 | 42 | 1053.8 |
| 20260902200604 | 96 | 202 | 2.0 | 8.0 | 0.00 | 0.00 | 0.00 | 44 | 1053.9 |
| 20260902200100 | 95 | 219 | 3.0 | 4.0 | 0.00 | 0.00 | 0.00 | 47 | 1053.9 |
| 20260902195555 | 95 | 266 | 4.0 | 7.0 | 0.00 | 0.00 | 0.00 | 46 | 1053.9 |
| 20260902195054 | 95 | 257 | 1.0 | 3.0 | 0.00 | 0.00 | 0.00 | 46 | 1054.1 |
| 20260902194554 | 94 | 203 | 2.0 | 4.0 | 0.00 | 0.00 | 0.00 | 48 | 1054.0 |
| 20260902194049 | 94 | 224 | 3.0 | 6.0 | 0.00 | 0.00 | 0.00 | 51 | 1054.3 |
| 20260902193546 | 96 | 214 | 2.0 | 3.0 | 0.00 | 0.00 | 0.00 | 48 | 1054.3 |
| 20260902193044 | 95 | 235 | 2.0 | 3.0 | 0.00 | 0.00 | 0.00 | 46 | 1054.2 |
| 20260902192543 | 95 | 261 | 2.0 | 6.0 | 0.00 | 0.00 | 0.00 | 47 | 1054.5 |
| 20260902192042 | 95 | 234 | 3.0 | 7.0 | 0.00 | 0.00 | 0.00 | 45 | 1054.3 |
| 20260902191538 | 95 | 268 | 3.0 | 6.0 | 0.00 | 0.00 | 0.00 | 46 | 1054.7 |
| 20260902191032 | 96 | 251 | 4.0 | 6.0 | 0.00 | 0.00 | 0.00 | 44 | 1054.7 |
| 20260902190528 | 97 | 192 | 3.0 | 4.0 | 0.00 | 0.00 | 0.00 | 47 | 1054.5 |
| 20260902190024 | 97 | 191 | 2.0 | 2.0 | 0.00 | 0.00 | 0.00 | 44 | 1054.7 |
| 20260902185519 | 96 | 221 | 2.0 | 4.0 | 0.00 | 0.00 | 0.00 | 47 | 1054.6 |
| 20260902185015 | 95 | 221 | 3.0 | 3.0 | 0.00 | 0.00 | 0.00 | 49 | 1054.9 |
| 20260902184509 | 95 | 299 | 3.0 | 4.0 | 0.00 | 0.00 | 0.00 | 49 | 1054.8 |
| 20260902184005 | 95 | 85 | 0.0 | 1.0 | 0.00 | 0.00 | 0.00 | 49 | 1054.7 |
| 20260902183501 | 95 | 249 | 1.0 | 3.0 | 0.00 | 0.00 | 0.00 | 48 | 1054.9 |
| 20260902182957 | 95 | 173 | 2.0 | 4.0 | 0.00 | 0.00 | 0.00 | 49 | 1054.7 |
| 20260902182453 | 95 | 188 | 4.0 | 4.0 | 0.00 | 0.00 | 0.00 | 49 | 1055.0 |
| 20260902181949 | 94 | 249 | 1.0 | 4.0 | 0.00 | 0.00 | 0.00 | 53 | 1054.8 |
| 20260902181444 | 94 | 280 | 2.0 | 3.0 | 0.00 | 0.00 | 0.00 | 50 | 1055.0 |
| 20260902180938 | 94 | 175 | 2.0 | 6.0 | 0.00 | 0.00 | 0.00 | 51 | 1055.0 |
| 20260902180434 | 93 | 231 | 1.0 | 4.0 | 0.00 | 0.00 | 0.00 | 52 | 1055.0 |
| 20260902175930 | 94 | 267 | 2.0 | 6.0 | 0.00 | 0.00 | 0.00 | 52 | 1054.9 |
| 20260902175425 | 94 | 192 | 6.0 | 7.0 | 0.00 | 0.00 | 0.00 | 49 | 1055.0 |
| 20260902174920 | 94 | 195 | 3.0 | 6.0 | 0.00 | 0.00 | 0.00 | 52 | 1055.1 |
| 20260902174417 | 94 | 250 | 3.0 | 4.0 | 0.00 | 0.00 | 0.00 | 52 | 1055.0 |
| 20260902173913 | 93 | 185 | 2.0 | 3.0 | 0.00 | 0.00 | 0.00 | 52 | 1055.4 |
| 20260902173411 | 92 | 321 | 1.0 | 2.0 | 0.00 | 0.00 | 0.00 | 53 | 1055.4 |
| 20260902172906 | 93 | 264 | 7.0 | 9.0 | 0.00 | 0.00 | 0.00 | 51 | 1055.6 |
| 20260902172406 | 93 | 211 | 3.0 | 6.0 | 0.00 | 0.00 | 0.00 | 53 | 1055.4 |
| 20260902171901 | 93 | 199 | 2.0 | 3.0 | 0.00 | 0.00 | 0.00 | 51 | 1055.5 |
| 20260902171356 | 93 | 309 | 2.0 | 6.0 | 0.00 | 0.00 | 0.00 | 54 | 1055.6 |
| 20260902170853 | 93 | 231 | 4.0 | 6.0 | 0.00 | 0.00 | 0.00 | 55 | 1055.8 |
| 20260902170353 | 93 | 277 | 2.0 | 4.0 | 0.00 | 0.00 | 0.00 | 52 | 1055.8 |
| 20260902165848 | 93 | 302 | 5.0 | 7.0 | 0.00 | 0.00 | 0.00 | 54 | 1055.7 |
| 20260902165347 | 93 | 259 | 2.0 | 6.0 | 0.00 | 0.00 | 0.00 | 53 | 1055.8 |
| 20260902164842 | 92 | 303 | 2.0 | 3.0 | 0.00 | 0.00 | 0.00 | 54 | 1055.8 |
| 20260902164337 | 92 | 243 | 3.0 | 3.0 | 0.00 | 0.00 | 0.00 | 55 | 1055.9 |
| 20260902163836 | 92 | 265 | 5.0 | 7.0 | 0.00 | 0.00 | 0.00 | 53 | 1056.1 |
| 20260902163331 | 92 | 254 | 4.0 | 6.0 | 0.00 | 0.00 | 0.00 | 55 | 1056.0 |
| 20260902162830 | 92 | 196 | 3.0 | 3.0 | 0.00 | 0.00 | 0.00 | 57 | 1056.2 |
| 20260902162325 | 92 | 180 | 3.0 | 7.0 | 0.00 | 0.00 | 0.00 | 55 | 1055.9 |
| 20260902161825 | 92 | 208 | 4.0 | 7.0 | 0.00 | 0.00 | 0.00 | 56 | 1056.2 |
| 20260902161320 | 92 | 239 | 2.0 | 4.0 | 0.00 | 0.00 | 0.00 | 59 | 1056.2 |
| 20260902160816 | 91 | 290 | 1.0 | 2.0 | 0.00 | 0.00 | 0.00 | 59 | 1056.2 |
| 20260902160311 | 92 | 204 | 3.0 | 4.0 | 0.00 | 0.00 | 0.00 | 57 | 1056.3 |
| 20260902155809 | 91 | 249 | 3.0 | 3.0 | 0.00 | 0.00 | 0.00 | 58 | 1056.2 |
| 20260902155308 | 91 | 284 | 3.0 | 3.0 | 0.00 | 0.00 | 0.00 | 61 | 1056.4 |
| 20260902154803 | 91 | 264 | 2.0 | 4.0 | 0.00 | 0.00 | 0.00 | 58 | 1056.3 |
| 20260902154259 | 91 | 253 | 2.0 | 4.0 | 0.00 | 0.00 | 0.00 | 61 | 1056.2 |
| 20260902153758 | 90 | 236 | 3.0 | 4.0 | 0.00 | 0.00 | 0.00 | 62 | 1056.4 |
| 20260902153252 | 90 | 290 | 3.0 | 3.0 | 0.00 | 0.00 | 0.00 | 63 | 1056.4 |
| 20260902152748 | 90 | 272 | 2.0 | 3.0 | 0.00 | 0.00 | 0.00 | 63 | 1056.0 |
| 20260902152244 | 89 | 253 | 2.0 | 4.0 | 0.00 | 0.00 | 0.00 | 64 | 1056.3 |
| 20260902151744 | 89 | 210 | 2.0 | 3.0 | 0.00 | 0.00 | 0.00 | 63 | 1056.2 |
| 20260902151240 | 89 | 207 | 4.0 | 6.0 | 0.00 | 0.00 | 0.00 | 63 | 1056.1 |
| 20260902150734 | 89 | 267 | 2.0 | 4.0 | 0.00 | 0.00 | 0.00 | 66 | 1056.3 |
| 20260902150231 | 89 | 218 | 3.0 | 4.0 | 0.00 | 0.00 | 0.00 | 65 | 1056.2 |
| 20260902145724 | 88 | 255 | 1.0 | 2.0 | 0.00 | 0.00 | 0.00 | 66 | 1056.2 |
| 20260902145219 | 88 | 280 | 1.0 | 3.0 | 0.00 | 0.00 | 0.00 | 67 | 1056.2 |
| 20260902144715 | 87 | 279 | 2.0 | 3.0 | 0.00 | 0.00 | 0.00 | 65 | 1056.1 |
| 20260902144210 | 87 | 264 | 2.0 | 3.0 | 0.00 | 0.00 | 0.00 | 66 | 1056.2 |
| 20260902143705 | 87 | 201 | 1.0 | 3.0 | 0.00 | 0.00 | 0.00 | 68 | 1056.0 |
| 20260902143201 | 86 | 208 | 1.0 | 2.0 | 0.00 | 0.00 | 0.00 | 69 | 1056.0 |
| 20260902142656 | 86 | 287 | 1.0 | 3.0 | 0.00 | 0.00 | 0.00 | 67 | 1055.9 |
| 20260902142152 | 85 | 211 | 3.0 | 4.0 | 0.00 | 0.00 | 0.00 | 70 | 1056.1 |
| 20260902141651 | 85 | 271 | 1.0 | 3.0 | 0.00 | 0.00 | 0.00 | 71 | 1056.3 |
| 20260902141147 | 84 | 271 | 0.0 | 3.0 | 0.00 | 0.00 | 0.00 | 70 | 1056.1 |
| 20260902140643 | 84 | 261 | 3.0 | 3.0 | 0.00 | 0.00 | 0.00 | 71 | 1056.1 |
| 20260902140142 | 84 | 250 | 3.0 | 3.0 | 0.00 | 0.00 | 0.00 | 72 | 1056.0 |
| 20260902135642 | 83 | 189 | 1.0 | 2.0 | 0.00 | 0.00 | 0.00 | 73 | 1056.1 |
| 20260902135137 | 83 | 213 | 2.0 | 2.0 | 0.00 | 0.00 | 0.00 | 74 | 1055.9 |
| 20260902134633 | 82 | 194 | 1.0 | 3.0 | 0.00 | 0.00 | 0.00 | 75 | 1056.1 |
| 20260902134132 | 82 | 212 | 2.0 | 3.0 | 0.00 | 0.00 | 0.00 | 76 | 1056.0 |
| 20260902133627 | 82 | 204 | 2.0 | 4.0 | 0.00 | 0.00 | 0.00 | 76 | 1056.1 |
| 20260902133122 | 81 | 198 | 2.0 | 3.0 | 0.00 | 0.00 | 0.00 | 76 | 1056.1 |
| 20260902132617 | 82 | 212 | 2.0 | 2.0 | 0.00 | 0.00 | 0.00 | 76 | 1056.1 |
| 20260902132112 | 81 | 217 | 1.0 | 2.0 | 0.00 | 0.00 | 0.00 | 78 | 1055.9 |
| 20260902131608 | 80 | 219 | 1.0 | 1.0 | 0.00 | 0.00 | 0.00 | 79 | 1056.0 |
| 20260902131104 | 80 | 214 | 0.0 | 1.0 | 0.00 | 0.00 | 0.00 | 78 | 1056.1 |
| 20260902130600 | 80 | 200 | 0.0 | 2.0 | 0.00 | 0.00 | 0.00 | 78 | 1056.1 |
| 20260902130100 | 80 | 208 | 2.0 | 3.0 | 0.00 | 0.00 | 0.00 | 78 | 1056.0 |
| 20260902125556 | 80 | 204 | 1.0 | 1.0 | 0.00 | 0.00 | 0.00 | 78 | 1056.0 |
| 20260902125051 | 80 | 210 | 0.0 | 1.0 | 0.00 | 0.00 | 0.00 | 78 | 1056.0 |
| 20260902124548 | 80 | 204 | 0.0 | 1.0 | 0.00 | 0.00 | 0.00 | 78 | 1055.9 |
| 20260902124047 | 80 | 139 | 0.0 | 0.0 | 0.00 | 0.00 | 0.00 | 78 | 1055.9 |
| 20260902123543 | 80 | 136 | 1.0 | 1.0 | 0.00 | 0.00 | 0.00 | 77 | 1056.0 |
| 20260902123038 | 79 | 131 | 0.0 | 0.0 | 0.00 | 0.00 | 0.00 | 79 | 1055.9 |
| 20260902122537 | 78 | 93 | 0.0 | 0.0 | 0.00 | 0.00 | 0.00 | 82 | 1055.8 |
| 20260902122033 | 77 | 90 | 0.0 | 0.0 | 0.00 | 0.00 | 0.00 | 84 | 1055.8 |
| 20260902121533 | 76 | 83 | 1.0 | 1.0 | 0.00 | 0.00 | 0.00 | 87 | 1055.7 |
| 20260902121028 | 75 | 84 | 1.0 | 1.0 | 0.00 | 0.00 | 0.00 | 88 | 1055.6 |
| 20260902120525 | 74 | 77 | 1.0 | 1.0 | 0.00 | 0.00 | 0.00 | 89 | 1055.4 |
| 20260902120021 | 74 | 77 | 1.0 | 1.0 | 0.00 | 0.00 | 0.00 | 90 | 1055.6 |
| 20260902115515 | 74 | 81 | 1.0 | 2.0 | 0.00 | 0.00 | 0.00 | 90 | 1055.6 |
| 20260902115012 | 73 | 84 | 1.0 | 1.0 | 0.00 | 0.00 | 0.00 | 90 | 1055.6 |
| 20260902114508 | 73 | 92 | 1.0 | 1.0 | 0.00 | 0.00 | 0.00 | 91 | 1055.5 |
| 20260902114007 | 73 | 91 | 1.0 | 2.0 | 0.00 | 0.00 | 0.00 | 91 | 1055.4 |
| 20260902113503 | 72 | 85 | 1.0 | 1.0 | 0.00 | 0.00 | 0.00 | 91 | 1055.4 |
| 20260902113003 | 72 | 85 | 0.0 | 1.0 | 0.00 | 0.00 | 0.00 | 92 | 1055.3 |
| 20260902112459 | 72 | 86 | 1.0 | 1.0 | 0.00 | 0.00 | 0.00 | 92 | 1055.3 |
| 20260902111955 | 72 | 88 | 1.0 | 1.0 | 0.00 | 0.00 | 0.00 | 92 | 1055.2 |
| 20260902111451 | 72 | 92 | 1.0 | 1.0 | 0.00 | 0.00 | 0.00 | 92 | 1055.1 |
| 20260902110947 | 72 | 93 | 1.0 | 2.0 | 0.00 | 0.00 | 0.00 | 92 | 1055.1 |
| 20260902110442 | 72 | 97 | 1.0 | 1.0 | 0.00 | 0.00 | 0.00 | 92 | 1055.0 |
| 20260902105937 | 72 | 102 | 1.0 | 1.0 | 0.00 | 0.00 | 0.00 | 92 | 1055.0 |
| 20260902105433 | 72 | 95 | 1.0 | 1.0 | 0.00 | 0.00 | 0.00 | 93 | 1055.1 |
| 20260902104927 | 72 | 92 | 1.0 | 2.0 | 0.00 | 0.00 | 0.00 | 92 | 1055.1 |
| 20260902104423 | 73 | 91 | 2.0 | 2.0 | 0.00 | 0.00 | 0.00 | 91 | 1055.1 |
| 20260902103922 | 73 | 105 | 1.0 | 1.0 | 0.00 | 0.00 | 0.00 | 92 | 1055.1 |
| 20260902103418 | 72 | 105 | 1.0 | 1.0 | 0.00 | 0.00 | 0.00 | 93 | 1054.7 |
| 20260902102913 | 72 | 99 | 1.0 | 2.0 | 0.00 | 0.00 | 0.00 | 94 | 1054.8 |
| 20260902102410 | 72 | 95 | 2.0 | 2.0 | 0.00 | 0.00 | 0.00 | 94 | 1055.0 |
| 20260902101906 | 71 | 82 | 2.0 | 2.0 | 0.00 | 0.00 | 0.00 | 94 | 1055.2 |
| 20260902101401 | 72 | 80 | 1.0 | 2.0 | 0.00 | 0.00 | 0.00 | 93 | 1054.8 |
| 20260902100900 | 73 | 86 | 2.0 | 2.0 | 0.00 | 0.00 | 0.00 | 92 | 1054.8 |
| 20260902100354 | 73 | 97 | 2.0 | 2.0 | 0.00 | 0.00 | 0.00 | 91 | 1055.0 |
| 20260902095849 | 73 | 107 | 1.0 | 1.0 | 0.00 | 0.00 | 0.00 | 92 | 1054.7 |
| 20260902095349 | 73 | 106 | 1.0 | 1.0 | 0.00 | 0.00 | 0.00 | 92 | 1054.7 |
| 20260902094849 | 73 | 106 | 1.0 | 1.0 | 0.00 | 0.00 | 0.00 | 93 | 1054.6 |
| 20260902094345 | 73 | 103 | 1.0 | 1.0 | 0.00 | 0.00 | 0.00 | 93 | 1054.7 |
| 20260902093844 | 72 | 97 | 1.0 | 2.0 | 0.00 | 0.00 | 0.00 | 94 | 1054.7 |
| 20260902093340 | 72 | 96 | 2.0 | 2.0 | 0.00 | 0.00 | 0.00 | 94 | 1054.5 |
| 20260902092838 | 72 | 80 | 2.0 | 2.0 | 0.00 | 0.00 | 0.00 | 94 | 1054.5 |
| 20260902092335 | 73 | 81 | 1.0 | 2.0 | 0.00 | 0.00 | 0.00 | 93 | 1054.5 |
| 20260902091835 | 73 | 95 | 1.0 | 2.0 | 0.00 | 0.00 | 0.00 | 94 | 1054.2 |
| 20260902091330 | 73 | 104 | 1.0 | 1.0 | 0.00 | 0.00 | 0.00 | 94 | 1054.5 |
| 20260902090827 | 72 | 100 | 1.0 | 2.0 | 0.00 | 0.00 | 0.00 | 95 | 1054.3 |
| 20260902090326 | 72 | 95 | 2.0 | 2.0 | 0.00 | 0.00 | 0.00 | 95 | 1054.5 |
| 20260902085825 | 72 | 87 | 3.0 | 3.0 | 0.00 | 0.00 | 0.00 | 95 | 1054.6 |
| 20260902085320 | 72 | 82 | 2.0 | 2.0 | 0.00 | 0.00 | 0.00 | 95 | 1054.1 |
| 20260902084816 | 72 | 91 | 2.0 | 2.0 | 0.00 | 0.00 | 0.00 | 95 | 1054.7 |
| 20260902084313 | 72 | 80 | 1.0 | 2.0 | 0.00 | 0.00 | 0.00 | 95 | 1054.5 |
| 20260902083808 | 72 | 87 | 2.0 | 2.0 | 0.00 | 0.00 | 0.00 | 95 | 1054.3 |
| 20260902083308 | 72 | 87 | 2.0 | 2.0 | 0.00 | 0.00 | 0.00 | 95 | 1054.5 |
| 20260902082802 | 72 | 86 | 2.0 | 2.0 | 0.00 | 0.00 | 0.00 | 95 | 1054.5 |
| 20260902082259 | 72 | 93 | 1.0 | 2.0 | 0.00 | 0.00 | 0.00 | 95 | 1054.3 |
| 20260902081755 | 72 | 89 | 2.0 | 2.0 | 0.00 | 0.00 | 0.00 | 95 | 1054.6 |
| 20260902081250 | 72 | 83 | 1.0 | 2.0 | 0.00 | 0.00 | 0.00 | 95 | 1054.6 |
| 20260902080745 | 71 | 84 | 1.0 | 1.0 | 0.00 | 0.00 | 0.00 | 95 | 1054.5 |
| 20260902080242 | 71 | 84 | 1.0 | 1.0 | 0.00 | 0.00 | 0.00 | 95 | 1054.5 |
| 20260902075741 | 72 | 84 | 0.0 | 0.0 | 0.00 | 0.00 | 0.00 | 95 | 1054.1 |
| 20260902075238 | 72 | 85 | 0.0 | 1.0 | 0.00 | 0.00 | 0.00 | 95 | 1054.1 |
| 20260902074737 | 71 | 86 | 1.0 | 2.0 | 0.00 | 0.00 | 0.00 | 95 | 1054.1 |
| 20260902074233 | 71 | 74 | 1.0 | 1.0 | 0.00 | 0.00 | 0.00 | 95 | 1054.2 |
| 20260902073728 | 71 | 74 | 1.0 | 1.0 | 0.00 | 0.00 | 0.00 | 94 | 1054.6 |
| 20260902073224 | 71 | 74 | 1.0 | 1.0 | 0.00 | 0.00 | 0.00 | 94 | 1054.1 |
| 20260902072720 | 72 | 77 | 1.0 | 1.0 | 0.00 | 0.00 | 0.00 | 94 | 1054.1 |
| 20260902072216 | 72 | 78 | 1.0 | 1.0 | 0.00 | 0.00 | 0.00 | 93 | 1054.1 |
| 20260902071712 | 72 | 80 | 1.0 | 2.0 | 0.00 | 0.00 | 0.00 | 93 | 1054.0 |
| 20260902071207 | 73 | 89 | 2.0 | 2.0 | 0.00 | 0.00 | 0.00 | 92 | 1054.3 |
| 20260902070704 | 73 | 85 | 1.0 | 2.0 | 0.00 | 0.00 | 0.00 | 92 | 1054.1 |
| 20260902070203 | 73 | 82 | 1.0 | 2.0 | 0.00 | 0.00 | 0.00 | 92 | 1054.1 |
| 20260902065701 | 73 | 77 | 1.0 | 2.0 | 0.00 | 0.00 | 0.00 | 92 | 1054.5 |
| 20260902065158 | 73 | 77 | 1.0 | 1.0 | 0.00 | 0.00 | 0.00 | 92 | 1054.3 |
| 20260902064652 | 73 | 81 | 1.0 | 1.0 | 0.00 | 0.00 | 0.00 | 91 | 1054.2 |
| 20260902064148 | 73 | 90 | 1.0 | 1.0 | 0.00 | 0.00 | 0.00 | 92 | 1054.1 |
| 20260902063643 | 73 | 89 | 1.0 | 2.0 | 0.00 | 0.00 | 0.00 | 92 | 1054.1 |
| 20260902063138 | 73 | 81 | 2.0 | 2.0 | 0.00 | 0.00 | 0.00 | 91 | 1054.3 |
| 20260902062637 | 73 | 88 | 2.0 | 2.0 | 0.00 | 0.00 | 0.00 | 90 | 1054.3 |
| 20260902062132 | 74 | 92 | 1.0 | 2.0 | 0.00 | 0.00 | 0.00 | 90 | 1054.5 |
| 20260902061631 | 75 | 84 | 2.0 | 2.0 | 0.00 | 0.00 | 0.00 | 89 | 1054.5 |
| 20260902061128 | 75 | 105 | 1.0 | 1.0 | 0.00 | 0.00 | 0.00 | 89 | 1054.8 |
| 20260902060624 | 75 | 107 | 1.0 | 1.0 | 0.00 | 0.00 | 0.00 | 88 | 1054.3 |
| 20260902060120 | 75 | 104 | 1.0 | 1.0 | 0.00 | 0.00 | 0.00 | 88 | 1054.7 |
| 20260902055615 | 75 | 103 | 0.0 | 0.0 | 0.00 | 0.00 | 0.00 | 88 | 1054.6 |
| 20260902055111 | 75 | 100 | 0.0 | 1.0 | 0.00 | 0.00 | 0.00 | 89 | 1054.3 |
| 20260902054606 | 74 | 96 | 0.0 | 1.0 | 0.00 | 0.00 | 0.00 | 90 | 1054.3 |
| 20260902054101 | 74 | 93 | 1.0 | 2.0 | 0.00 | 0.00 | 0.00 | 91 | 1054.2 |
| 20260902053556 | 73 | 88 | 2.0 | 2.0 | 0.00 | 0.00 | 0.00 | 92 | 1054.2 |
| 20260902053051 | 73 | 83 | 2.0 | 2.0 | 0.00 | 0.00 | 0.00 | 92 | 1054.2 |
| 20260902052551 | 73 | 80 | 2.0 | 2.0 | 0.00 | 0.00 | 0.00 | 92 | 1054.2 |
| 20260902052047 | 73 | 77 | 1.0 | 2.0 | 0.00 | 0.00 | 0.00 | 91 | 1054.2 |
| 20260902051546 | 74 | 78 | 1.0 | 1.0 | 0.00 | 0.00 | 0.00 | 91 | 1054.2 |
| 20260902051045 | 74 | 78 | 1.0 | 1.0 | 0.00 | 0.00 | 0.00 | 91 | 1054.2 |
| 20260902050540 | 74 | 76 | 1.0 | 2.0 | 0.00 | 0.00 | 0.00 | 90 | 1054.2 |
| 20260902050035 | 74 | 95 | 1.0 | 1.0 | 0.00 | 0.00 | 0.00 | 91 | 1054.1 |
| 20260902045531 | 74 | 90 | 2.0 | 2.0 | 0.00 | 0.00 | 0.00 | 90 | 1054.2 |
| 20260902045027 | 74 | 84 | 2.0 | 2.0 | 0.00 | 0.00 | 0.00 | 90 | 1054.2 |
| 20260902044527 | 74 | 70 | 1.0 | 2.0 | 0.00 | 0.00 | 0.00 | 90 | 1054.3 |
| 20260902044023 | 74 | 79 | 0.0 | 1.0 | 0.00 | 0.00 | 0.00 | 92 | 1054.3 |
| 20260902043519 | 74 | 71 | 1.0 | 1.0 | 0.00 | 0.00 | 0.00 | 91 | 1054.1 |
| 20260902043019 | 75 | 72 | 1.0 | 1.0 | 0.00 | 0.00 | 0.00 | 90 | 1054.2 |
| 20260902042518 | 74 | 83 | 1.0 | 1.0 | 0.00 | 0.00 | 0.00 | 90 | 1054.1 |
| 20260902042014 | 75 | 70 | 2.0 | 2.0 | 0.00 | 0.00 | 0.00 | 90 | 1054.2 |
| 20260902041514 | 75 | 80 | 1.0 | 2.0 | 0.00 | 0.00 | 0.00 | 88 | 1054.1 |
| 20260902041008 | 76 | 86 | 1.0 | 1.0 | 0.00 | 0.00 | 0.00 | 88 | 1054.0 |
| 20260902040503 | 76 | 91 | 1.0 | 1.0 | 0.00 | 0.00 | 0.00 | 88 | 1054.3 |
| 20260902040002 | 76 | 91 | 1.0 | 1.0 | 0.00 | 0.00 | 0.00 | 89 | 1054.1 |
| 20260902035457 | 76 | 84 | 1.0 | 2.0 | 0.00 | 0.00 | 0.00 | 88 | 1054.3 |
| 20260902034956 | 76 | 81 | 1.0 | 1.0 | 0.00 | 0.00 | 0.00 | 88 | 1054.5 |
| 20260902034451 | 76 | 81 | 1.0 | 1.0 | 0.00 | 0.00 | 0.00 | 88 | 1054.3 |